sat.trackr.live / text

‹ back to catalog

STARLINK-32196

NORAD 60430 · 2024-144F

PAYLOAD ACTIVE UNKNOWN

§ Identity

Operator
Country
US
Launch date
2024-08-12
Launch site
AFETR
Launch vehicle
Mass (kg)
RCS (m²)

Purposes: comms

External: N2YO · Heavens-Above · Gunter

§ Orbital elements

Epoch: 2026-05-25T04:38:03.732000Z

Period
93.85 min
Inclination
53.1608°
Eccentricity
0.0000999
Mean motion
15.34386747 rev/d
Perigee alt
462.1 km
Apogee alt
463.4 km
Semi-major
6,840.9 km
B*
3.2413e-5
RAAN
220.9694°
Arg perigee
100.1009°
Mean anomaly
260.0106°
Rev number
10,103

§ Raw data

STARLINK-321961 60430U 24144F   26145.19309875  .00000719  00000+0  32413-4 0  99912 60430  53.1608 220.9694 0000999 100.1009 260.0106 15.34386747101036

JSON: /api/v1/satellites/60430 · /tle

For live sub-satellite position, see the globe view (requires WebGL).

§ Visibility from observer

Set your observer location to see the next 7 days of passes ≥ 10°. The values pass through the URL so the page stays shareable.

No JS? Fill the form by hand. The geolocation button needs JavaScript.